This is the latest recevied weather packets stored in our database for station/object WB4ROX. If no packets are shown the sender has not sent any weather packets the latest 10 day(s).
| Time | Temp. | Humidity | Pressure | Rain* | Wind** | Luminosity | Snow |
|---|---|---|---|---|---|---|---|
| 1777936240 | 16.67° C | 41% | 1017.6 hPa | 0 mm | - | 77 W/m² | - |
| 1777935936 | 16.11° C | 43% | 1017.5 hPa | 0 mm | - | 111 W/m² | - |
| 1777935635 | 16.11° C | 43% | 1017.7 hPa | 0 mm | - | 107 W/m² | - |
| 1777935332 | 16.11° C | 43% | 1017.6 hPa | 0 mm | - | 62 W/m² | - |
| 1777935029 | 16.67° C | 42% | 1017.5 hPa | 0 mm | - | 102 W/m² | - |
| 1777934725 | 16.11° C | 43% | 1017.4 hPa | 0 mm | - | 171 W/m² | - |
| 1777934423 | 15.56° C | 45% | 1017.6 hPa | 0 mm | - | 119 W/m² | - |
| 1777934119 | 15.56° C | 45% | 1017.4 hPa | 0 mm | - | 71 W/m² | - |
| 1777933815 | 15.56° C | 44% | 1017.5 hPa | 0 mm | - | 64 W/m² | - |
| 1777933512 | 15.56° C | 44% | 1017.5 hPa | 0 mm | - | 67 W/m² | - |
| 1777933210 | 16.11° C | 43% | 1017.6 hPa | 0 mm | - | 63 W/m² | - |
| 1777932907 | 16.11° C | 42% | 1017.5 hPa | 0 mm | - | 78 W/m² | - |
| 1777932603 | 16.11° C | 42% | 1017.5 hPa | 0 mm | - | 82 W/m² | - |
| 1777932300 | 16.11° C | 41% | 1017.4 hPa | 0 mm | - | 85 W/m² | - |
| 1777931997 | 16.67° C | 40% | 1017.4 hPa | 0 mm | - | 96 W/m² | - |
| 1777931693 | 16.67° C | 40% | 1017.4 hPa | 0 mm | - | 80 W/m² | - |
| 1777931390 | 16.67° C | 40% | 1017.4 hPa | 0 mm | - | 81 W/m² | - |
| 1777931086 | 16.67° C | 38% | 1017.6 hPa | 0 mm | - | 96 W/m² | - |
| 1777930783 | 16.67° C | 38% | 1017.5 hPa | 0 mm | - | 132 W/m² | - |
| 1777930479 | 16.67° C | 38% | 1017.5 hPa | 0 mm | - | 113 W/m² | - |
| 1777930177 | 16.67° C | 38% | 1017.3 hPa | 0 mm | - | 131 W/m² | - |
| 1777929872 | 17.22° C | 39% | 1017.6 hPa | 0 mm | - | 90 W/m² | - |
| 1777929571 | 17.22° C | 38% | 1017.6 hPa | 0 mm | - | 106 W/m² | - |
| 1777929266 | 17.22° C | 38% | 1017.6 hPa | 0 mm | - | 105 W/m² | - |
| 1777928964 | 17.22° C | 40% | 1017.6 hPa | 0 mm | - | 138 W/m² | - |
* Rain latest hour (hover to see other rain measurements)
** Current wind speed in m/s (hover to see current wind gust speed)